Location: Dattensoll
(49.9928°N, 9.8954°E)
Time: 05:08:50
(UTC+00:00)

Cosmos 2360 Rocket - Pass Details

Date: 19 May 2025
Orbit: 834 x 842 km, 71.0° (Epoch: 14 June)

Event Time Altitude Azimuth Distance (km) Brightness Sun altitude
Rises 21:25:14 0° 333° (NNW) 3,395 7.2 -15.8°
Reaches altitude 10° 21:28:09 10° 347° (NNW) 2,457 5.9 -16.0°
Maximum altitude 21:32:43 25° 42° (NE) 1,649 4.0 -16.3°
Drops below altitude 10° 21:37:15 10° 96° (E) 2,448 4.3 -16.6°
Enters shadow 21:37:56 - 100° (E) 2,655 4.5 -16.7°
